Humidity-temperature Sensor

Selected Measurement Type: Air Temperature

 
Air Temperature [°C]     6 entries per hour
Showing data from 6/27/2017 (00:00:00 Z) to 6/26/2017 (00:01:00 Z)
Previous Next [ Day | 3-Days | 7-Days ]
First Last
Prev [ Day | 3-Days | 7-Days ] Next
First Last

Start Time:     :
End Time:     :     
Time (in GMT) :00 :50 :40 :30 :20 :10
Previous Next [ Day | 3-Days | 7-Days ]
First Last
Prev [ Day | 3-Days | 7-Days ] Next
First Last


123 => good data
MM => data is determined as missing
-- => data not received/configured
Back to Top Back to Top
6/27/2017 00:00 to 23:10 24.32 24.32 24.32 24.33 24.24 24.28
6/26/2017 23:00 to 22:10 24.22 24.17 24.11 24.12 24.17 24.17
6/26/2017 22:00 to 21:10 24.20 24.17 24.21 24.22 24.25 24.34
6/26/2017 21:00 to 20:10 24.28 24.33 24.31 24.29 24.28 24.29
6/26/2017 20:00 to 19:10 24.30 24.29 24.27 24.36 24.37 24.36
6/26/2017 19:00 to 18:10 24.36 24.38 24.35 24.33 24.37 24.38
6/26/2017 18:00 to 17:10 24.38 24.40 24.36 24.35 24.40 24.39
6/26/2017 17:00 to 16:10 24.35 24.41 24.39 24.35 24.29 24.35
6/26/2017 16:00 to 15:10 24.36 24.31 24.29 24.31 24.29 24.25
6/26/2017 15:00 to 14:10 24.34 24.29 24.28 24.25 24.24 24.30
6/26/2017 14:00 to 13:10 24.30 24.27 24.30 24.23 24.23 24.17
6/26/2017 13:00 to 12:10 24.20 24.19 24.11 24.17 24.21 24.16
6/26/2017 12:00 to 11:10 24.16 24.16 24.14 24.12 24.09 24.07
6/26/2017 11:00 to 10:10 24.00 24.03 24.09 24.03 24.01 24.03
6/26/2017 10:00 to 9:10 24.04 23.99 23.99 23.96 24.06 24.03
6/26/2017 09:00 to 8:10 24.01 23.98 23.97 23.96 24.03 23.99
6/26/2017 08:00 to 7:10 23.99 24.04 24.04 23.99 24.08 24.04
6/26/2017 07:00 to 6:10 24.08 24.03 24.04 23.99 24.01 23.97
6/26/2017 06:00 to 5:10 24.05 24.08 24.10 24.12 24.06 24.08
6/26/2017 05:00 to 4:10 24.07 24.10 24.10 24.03 24.11 24.07
6/26/2017 04:00 to 3:10 24.05 24.05 24.08 24.03 24.05 24.04
6/26/2017 03:00 to 2:10 -- -- -- -- -- --
6/26/2017 02:00 to 1:10 24.10 24.11 24.08 24.10 24.11 24.11
6/26/2017 01:00 to 0:10 -- -- -- -- -- --